Palmdale, CA

3:05 PM PDT on April 23, 2018 (GMT -0700)
Palmdale Af Plant 42

Weather History for KPMD - September, 2013

Change the Weather History Date:

Saturday, September 14, 2013

  Actual Average Record
Temperature  
Mean Temperature 82 °F 74 °F  
Max Temperature 99 °F 91 °F 106 °F (1971)
Min Temperature 64 °F 58 °F 38 °F (1966)
Degree Days  
Heating Degree Days 0 0  
Month to date heating degree days 0 0  
Since 1 July heating degree days 0 0  
Cooling Degree Days 17 10  
Month to date cooling degree days 251 161  
Year to date cooling degree days 2016 1643  
Growing Degree Days 31 (Base 50)    
Moisture  
Dew Point 42 °F    
Average Humidity 28    
Maximum Humidity 44    
Minimum Humidity 12    
Precipitation  
Precipitation 0.00 in 0.01 in 0.00 in (2018)
Month to date precipitation 0.00 0.11  
Year to date precipitation 0.99 5.67  
Since 1 July precipitation 0.13  
Snow  
Snow 0.00 in - 0.00 in (1973)
Month to date snowfall 0.0  
Since 1 July snowfall 0.0  
Since 1 September snowfall 0.0  
Snow Depth 0.00 in    
Sea Level Pressure  
Sea Level Pressure 29.71 in    
Wind  
Wind Speed 6 mph (SW)    
Max Wind Speed 22 mph    
Max Gust Speed 26 mph    
Visibility 10 miles    
Events      
T = Trace of Precipitation, MM = Missing Value Source: NWS Daily Summary

Daily Weather History Graph

Daily Weather History Graph

Search for Another Location

Airport or City:

Astronomy

Sep. 14, 2013 Rise Set
Actual Time 6:34 AM PDT 7:00 PM PDT
Civil Twilight 6:09 AM PDT 7:25 PM PDT
Nautical Twilight 5:39 AM PDT 7:54 PM PDT
Astronomical Twilight 5:09 AM PDT 8:24 PM PDT
Moon 3:36 PM PDT (9/14) 1:21 AM PDT (9/14)
Length of Visible Light 13h 15m
Length of Day
12h 25m
Waxing Gibbous, 73% of the Moon is Illuminated
Sep 14
Waxing Gibbous
Sep 19
Full
Sep 26
Last Quarter
Oct 4
New
Oct 11
First Quarter

Hourly Weather History & Observations

Time (PDT) Temp. Dew Point Humidity Pressure Visibility Wind Dir Wind Speed Gust Speed Precip Events Conditions
12:53 AM 71.1 °F 44.1 °F 38% 29.73 in 10.0 mi SSW 8.1 mph - N/A   Clear
1:53 AM 70.0 °F 42.1 °F 36% 29.72 in 10.0 mi Calm Calm - N/A   Clear
2:53 AM 69.1 °F 43.0 °F 39% 29.72 in 10.0 mi SSW 5.8 mph - N/A   Clear
3:53 AM 68.0 °F 44.1 °F 42% 29.71 in 10.0 mi South 5.8 mph - N/A   Clear
4:53 AM 64.9 °F 42.1 °F 43% 29.72 in 10.0 mi South 3.5 mph - N/A   Clear
5:53 AM 64.9 °F 43.0 °F 45% 29.73 in 10.0 mi Calm Calm - N/A   Clear
6:53 AM 64.9 °F 42.1 °F 43% 29.75 in 10.0 mi SSW 5.8 mph - N/A   Clear
7:53 AM 71.1 °F 45.0 °F 39% 29.76 in 10.0 mi SSW 4.6 mph - N/A   Clear
8:53 AM 79.0 °F 43.0 °F 28% 29.75 in 10.0 mi Calm Calm - N/A   Clear
9:53 AM 84.0 °F 44.1 °F 25% 29.75 in 10.0 mi Calm Calm - N/A   Clear
10:53 AM 89.1 °F 43.0 °F 20% 29.74 in 10.0 mi Variable 3.5 mph - N/A   Clear
11:53 AM 91.9 °F 43.0 °F 18% 29.73 in 10.0 mi NNW 4.6 mph - N/A   Clear
12:53 PM 95.0 °F 39.9 °F 15% 29.70 in 10.0 mi Variable 5.8 mph - N/A   Clear
1:53 PM 98.1 °F 39.0 °F 13% 29.67 in 10.0 mi ENE 8.1 mph - N/A   Clear
2:53 PM 98.1 °F 37.9 °F 12% 29.65 in 10.0 mi North 5.8 mph - N/A   Clear
3:53 PM 98.1 °F 37.0 °F 12% 29.64 in 10.0 mi SW 13.8 mph 19.6 mph N/A   Clear
4:53 PM 96.1 °F 39.0 °F 14% 29.64 in 10.0 mi West 16.1 mph 26.5 mph N/A   Clear
5:53 PM 93.9 °F 37.0 °F 14% 29.65 in 10.0 mi SW 20.7 mph - N/A   Clear
6:53 PM 90.0 °F 39.9 °F 17% 29.66 in 10.0 mi WSW 16.1 mph - N/A   Clear
7:53 PM 86.0 °F 45.0 °F 24% 29.68 in 10.0 mi West 13.8 mph - N/A   Clear
8:53 PM 82.0 °F 41.0 °F 23% 29.70 in 10.0 mi WNW 5.8 mph - N/A   Clear
9:53 PM 81.0 °F 39.9 °F 23% 29.71 in 10.0 mi WSW 4.6 mph - N/A   Clear
10:53 PM 79.0 °F 39.9 °F 25% 29.71 in 10.0 mi WSW 5.8 mph - N/A   Clear
11:53 PM 75.9 °F 42.1 °F 30% 29.71 in 10.0 mi Calm Calm - N/A   Clear